| time (UTC) | temp F | wind direction | speed knots | gust knots | rain 1hr in | rain 24hr in | rain mn in | humidity % | barometer mb |
| 20260504000021 | 59 | 270 | 0.0 | 0.9 | 0.00 | 0.00 | 0.00 | 39 | 1016.7 |
| 20260503234523 | 60 | 284 | 0.0 | 3.5 | 0.00 | 0.00 | 0.00 | 37 | 1016.7 |
| 20260503233022 | 60 | 305 | 0.9 | 4.3 | 0.00 | 0.00 | 0.00 | 35 | 1016.6 |
| 20260503231514 | 60 | 263 | 0.0 | 2.6 | 0.00 | 0.00 | 0.00 | 35 | 1016.5 |
| 20260503230017 | 61 | 310 | 0.9 | 7.8 | 0.00 | 0.00 | 0.00 | 33 | 1016.5 |
| 20260503224522 | 62 | 327 | 1.7 | 7.0 | 0.00 | 0.00 | 0.00 | 33 | 1016.6 |
| 20260503223022 | 63 | 316 | 1.7 | 6.1 | 0.00 | 0.00 | 0.00 | 32 | 1016.6 |
| 20260503221513 | 62 | 5 | 4.3 | 10.4 | 0.00 | 0.00 | 0.00 | 31 | 1016.5 |
| 20260503220027 | 62 | 15 | 4.3 | 8.7 | 0.00 | 0.00 | 0.00 | 31 | 1016.4 |
| 20260503214509 | 62 | 19 | 3.5 | 11.3 | 0.00 | 0.00 | 0.00 | 31 | 1016.5 |
| 20260503213005 | 62 | 360 | 6.1 | 11.3 | 0.00 | 0.00 | 0.00 | 30 | 1016.5 |
| 20260503211514 | 62 | 15 | 6.1 | 8.7 | 0.00 | 0.00 | 0.00 | 30 | 1016.5 |
| 20260503210018 | 62 | 344 | 5.2 | 9.6 | 0.00 | 0.00 | 0.00 | 30 | 1016.4 |
| 20260503204529 | 62 | 279 | 2.6 | 8.7 | 0.00 | 0.00 | 0.00 | 30 | 1016.4 |
| 20260503203006 | 62 | 337 | 7.0 | 11.3 | 0.00 | 0.00 | 0.00 | 30 | 1016.5 |
| 20260503201506 | 61 | 349 | 7.0 | 13.0 | 0.00 | 0.00 | 0.00 | 30 | 1016.6 |
| 20260503200012 | 61 | 326 | 7.8 | 15.6 | 0.00 | 0.00 | 0.00 | 30 | 1016.6 |
| 20260503194521 | 61 | 360 | 7.8 | 13.0 | 0.00 | 0.00 | 0.00 | 31 | 1016.8 |
| 20260503193022 | 61 | 352 | 4.3 | 12.2 | 0.00 | 0.00 | 0.00 | 31 | 1017.0 |
| 20260503191504 | 61 | 360 | 10.4 | 14.8 | 0.00 | 0.00 | 0.00 | 32 | 1017.2 |
| 20260503190038 | 60 | 348 | 8.7 | 13.9 | 0.00 | 0.00 | 0.00 | 32 | 1017.3 |
| 20260503184526 | 60 | 320 | 4.3 | 13.9 | 0.00 | 0.00 | 0.00 | 33 | 1017.5 |
| 20260503183021 | 60 | 337 | 7.0 | 14.8 | 0.00 | 0.00 | 0.00 | 35 | 1017.4 |
| 20260503181512 | 60 | 13 | 4.3 | 13.9 | 0.00 | 0.00 | 0.00 | 34 | 1017.5 |
| 20260503180016 | 59 | 324 | 7.8 | 13.9 | 0.00 | 0.00 | 0.00 | 35 | 1017.5 |
| 20260503174512 | 59 | 331 | 7.8 | 12.2 | 0.00 | 0.00 | 0.00 | 35 | 1017.6 |
| 20260503173019 | 59 | 350 | 7.8 | 14.8 | 0.00 | 0.00 | 0.00 | 36 | 1017.8 |
| 20260503171528 | 58 | 352 | 7.8 | 18.2 | 0.00 | 0.00 | 0.00 | 37 | 1017.9 |
| 20260503081526 | 53 | 5 | 3.5 | 8.7 | 0.00 | 0.00 | 0.00 | 60 | 1013.8 |
| 20260503071530 | 53 | 360 | 4.3 | 8.7 | 0.00 | 0.00 | 0.00 | 60 | 1013.2 |
| 20260503054535 | 52 | 329 | 2.6 | 4.3 | 0.00 | 0.00 | 0.00 | 1012.5 | |
| 20260503053017 | 53 | 332 | 0.9 | 3.5 | 0.00 | 0.00 | 0.00 | 59 | 1012.8 |
| 20260503051520 | 53 | 352 | 1.7 | 3.5 | 0.00 | 0.00 | 0.00 | 58 | 1012.9 |
| 20260503050028 | 54 | 345 | 2.6 | 5.2 | 0.00 | 0.00 | 0.00 | 57 | 1012.8 |
| 20260503044528 | 54 | 334 | 1.7 | 5.2 | 0.00 | 0.00 | 0.00 | 58 | 1012.9 |
| 20260503043025 | 55 | 348 | 1.7 | 4.3 | 0.00 | 0.00 | 0.00 | 57 | 1012.9 |
| 20260503041519 | 55 | 16 | 1.7 | 4.3 | 0.00 | 0.00 | 0.00 | 58 | 1012.9 |
| 20260503040013 | 55 | 333 | 2.6 | 4.3 | 0.00 | 0.00 | 0.00 | 58 | 1012.9 |
| 20260503034504 | 55 | 319 | 1.7 | 4.3 | 0.00 | 0.00 | 0.00 | 59 | 1012.9 |
| 20260503033008 | 55 | 320 | 1.7 | 4.3 | 0.00 | 0.00 | 0.00 | 59 | 1012.8 |
| 20260503031516 | 55 | 325 | 3.5 | 7.0 | 0.00 | 0.00 | 0.00 | 58 | 1012.6 |
| 20260503030020 | 55 | 325 | 2.6 | 5.2 | 0.00 | 0.00 | 0.00 | 58 | 1012.8 |
| 20260503024504 | 56 | 339 | 1.7 | 4.3 | 0.00 | 0.00 | 0.00 | 58 | 1013.0 |
| 20260503023008 | 56 | 328 | 2.6 | 4.3 | 0.00 | 0.00 | 0.00 | 57 | 1012.9 |
| 20260503021517 | 56 | 9 | 1.7 | 5.2 | 0.00 | 0.00 | 0.00 | 56 | 1012.9 |
| 20260503020018 | 56 | 348 | 3.5 | 7.0 | 0.00 | 0.00 | 0.00 | 56 | 1012.8 |
| 20260503014531 | 56 | 350 | 2.6 | 5.2 | 0.00 | 0.00 | 0.00 | 55 | 1012.8 |
| 20260503013004 | 56 | 36 | 3.5 | 5.2 | 0.00 | 0.00 | 0.00 | 54 | 1012.6 |
| 20260503011524 | 56 | 30 | 1.7 | 4.3 | 0.00 | 0.00 | 0.00 | 53 | 1012.4 |
| 20260503010017 | 56 | 352 | 2.6 | 7.0 | 0.00 | 0.00 | 0.00 | 52 | 1012.5 |
| 20260503004550 | 56 | 36 | 2.6 | 5.2 | 0.00 | 0.00 | 0.00 | 53 | 1012.4 |
| 20260503003022 | 56 | 31 | 3.5 | 7.0 | 0.00 | 0.00 | 0.00 | 53 | 1012.2 |
| 20260503001508 | 56 | 38 | 2.6 | 11.3 | 0.00 | 0.00 | 0.00 | 54 | 1012.1 |